カタログに戻る

STARLINK-30107

運用中通信VLEO
NORAD 56287·PAYLOAD·🇺🇸 United States

打ち上げ Apr 19, 2023 から Cape Canaveral Space Force Station

Loading…

次のパス (今後24時間)

TLE

最新Source: CelesTrak SupGP

元期: Sep 14, 2026, 21:11 UTC

1 56287C 23056B   26257.88312500  .00019494  00000+0  70604-3 0  2576
2 56287  43.0007 202.6877 0001204 261.4945  82.4511 15.27570494    10

AllMySatでSTARLINK-30107をリアルタイム追跡

Download on the App Store